Location: Casa Saraceni
(43.4167°N, 13.5500°E)
Time: 03:19:42
(UTC+00:00)

Daily predictions for brighter satellites

Satellite Brightness Start Highest point End
(mag) Time Altitude Azimuth Time Altitude Azimuth Time Altitude Azimuth
USA 234 4.5 02:27:25 10° NE 02:31:00 35° ENE 02:31:00 35° ENE
Cosmos 2297 Rocket 4.0 02:56:31 24° NE 02:56:31 24° NE 02:58:43 10° NNE
Cosmos 2227 Rocket 3.9 02:59:46 27° NE 02:59:46 27° NE 03:02:23 10° NNE
CZ-4C R/B 3.7 03:21:04 34° N 03:23:41 45° NE 03:31:24 10° ESE
Lacrosse 5 2.9 03:25:40 43° ESE 03:25:40 43° ESE 03:29:09 10° SE
SL-16 R/B 2.7 03:30:49 53° NNE 03:31:32 57° ENE 03:37:06 10° SE
Cosmos 1464 Rocket 4.1 03:34:01 10° S 03:40:10 70° E 03:46:19 10° NNE
Cosmos 2082 3.7 03:40:30 74° SSE 03:40:53 78° ESE 03:46:32 10° NNE
GEOS 3 Rocket 3.7 03:40:20 10° SSE 03:44:41 65° S 03:44:41 65° S
Cosmos 2237 Rocket 3.8 03:48:54 21° SSW 03:48:54 21° SSW 03:50:48 10° S
ALOS 4.1 03:49:29 10° NNE 03:53:40 31° E 03:57:49 10° SSE
ATLAS 5 CENTAUR R/B 2.9 03:55:56 31° NNE 03:55:56 31° NNE 03:58:37 10° NNE
STARLINK-68 4.5 03:55:50 44° SE 03:55:50 44° SE 03:58:39 10° SE
STARLINK-58 4.4 03:57:18 47° SE 03:57:18 47° SE 04:00:13 10° SE
COBE Rocket 4.1 03:52:00 10° S 03:56:02 59° S 03:56:02 59° S
STARLINK-62 4.3 03:59:01 47° SE 03:59:01 47° SE 04:01:58 10° SE
Cosmos 1072 Rocket 4.3 03:53:06 10° SSW 03:59:11 78° W 04:05:20 10° N
STARLINK-63 4.2 04:00:30 50° SE 04:00:30 50° SE 04:03:33 10° SE
STARLINK-72 4.1 04:03:33 54° SSE 04:03:33 54° SSE 04:06:45 10° SE
Cosmos 407 Rocket 3.8 04:02:19 28° N 04:05:06 65° ENE 04:10:24 10° SSE
Aureole 1 Rocket 3.6 04:05:33 61° W 04:06:03 64° WSW 04:12:35 10° S
STARLINK-59 4.0 04:06:50 55° SSE 04:06:50 55° SSE 04:10:06 10° SE
Cosmos 614 Rocket 4.1 04:05:52 34° N 04:08:05 71° ENE 04:13:09 10° SSE
STARLINK-55 3.9 04:09:59 56° S 04:09:59 56° S 04:13:22 10° SE
STARLINK-28 3.9 04:11:39 56° S 04:11:39 56° S 04:15:04 10° SE
Cosmos 1933 Rocket 3.9 04:08:55 10° S 04:13:12 63° E 04:17:29 10° NNE
PSLV R/B 3.9 04:09:55 10° NNE 04:14:02 81° ESE 04:18:08 10° S
STARLINK-53 3.8 04:14:47 56° S 04:14:47 56° S 04:18:19 10° SE
Cosmos 1513 Rocket 4.4 04:08:10 10° SSW 04:14:32 66° W 04:20:57 10° N
Cosmos 1140 Rocket 4.1 04:10:58 18° N 04:14:44 54° ENE 04:19:50 10° SE
Cosmos 1484 Rocket 2.7 04:12:03 10° NNE 04:16:02 88° E 04:19:57 10° SSW
STARLINK-54 3.8 04:16:26 54° SSW 04:16:26 54° SSW 04:20:00 10° SE
USA 234 3.7 04:10:38 10° NE 04:16:44 44° NNW 04:18:22 37° WNW
Nadezhda 4 Rocket 3.9 04:12:01 10° N 04:18:18 88° E 04:24:28 10° S
STARLINK-34 3.8 04:19:35 52° SSW 04:19:35 52° SSW 04:23:15 10° SE
STARLINK-81 3.7 04:22:32 55° SW 04:22:32 55° SW 04:26:24 10° SE
STARLINK-24 3.9 04:24:21 49° SW 04:24:21 49° SW 04:28:09 10° SSE
STARLINK-77 3.7 04:25:42 52° SW 04:25:46 52° SW 04:29:40 10° SE
Cosmos 2263 Rocket 3.8 04:21:50 10° S 04:26:51 35° ESE 04:31:53 10° NE
STARLINK-25 3.8 04:26:56 50° SW 04:27:02 50° SW 04:30:55 10° SE
STARLINK-71 4.0 04:29:07 44° SW 04:29:12 44° SW 04:33:01 10° SSE
STARLINK-79 3.8 04:30:06 46° SW 04:30:19 47° SW 04:34:11 10° SSE
STARLINK-78 3.9 04:32:06 44° SW 04:32:22 45° SW 04:36:13 10° SSE
Okean O Rocket 2.3 04:29:28 10° NNE 04:33:48 56° E 04:38:07 10° S
STARLINK-57 4.0 04:33:48 41° SW 04:34:06 42° SW 04:37:53 10° SSE
COSMO-SKYMED 1 2.5 04:30:14 10° S 04:34:32 66° W 04:36:55 26° NNW
STARLINK-49 4.0 04:35:15 41° WSW 04:35:39 42° SW 04:39:27 10° SSE
STARLINK-27 4.0 04:36:28 40° WSW 04:36:55 41° SW 04:40:42 10° SSE
Cosmos 2297 Rocket 3.3 04:38:23 24° NW 04:38:23 24° NW 04:42:12 10° N
Cosmos 2242 Rocket 3.5 04:34:53 16° NNW 04:38:31 71° W 04:43:01 10° S
STARLINK-74 4.1 04:38:25 38° WSW 04:38:56 40° SW 04:42:42 10° SSE
STARLINK-39 4.1 04:40:01 36° WSW 04:40:35 38° SW 04:44:20 10° SSE
Cosmos 2026 Rocket 4.5 04:34:57 10° N 04:41:03 61° E 04:47:11 10° SSE
Cosmos 2227 Rocket 3.2 04:41:39 25° NW 04:41:39 25° NW 04:45:55 10° N
Cosmos 1607 4.5 04:40:14 30° WNW 04:41:58 35° NW 04:47:35 10° NNE
Cosmos 1812 3.9 04:43:20 26° SW 04:43:20 26° SW 04:45:34 10° SSW
STARLINK 4.2 04:41:36 35° WSW 04:42:13 37° SW 04:45:56 10° SSE
Cosmos 1624 Rocket 3.9 04:37:34 10° SSW 04:42:51 69° WNW 04:48:12 10° NNE
MOS 1-B 4.2 04:37:14 10° N 04:43:01 74° WNW 04:48:46 10° SSW
STARLINK-42 4.3 04:43:22 32° WSW 04:43:59 34° SW 04:47:38 10° SSE
Cosmos 1470 Rocket 3.9 04:40:50 10° SSW 04:45:04 42° WNW 04:49:22 10° N
STARLINK-21 4.3 04:44:50 32° WSW 04:45:33 34° SW 04:49:12 10° SSE
CZ-4B R/B 3.5 04:40:10 10° NNE 04:45:45 72° ESE 04:51:22 10° S
PAYLOAD B 4.2 04:40:13 10° NNE 04:45:46 87° WNW 04:51:18 10° SSW
Cosmos 1461 3.5 04:44:46 19° NNW 04:47:37 56° NE 04:51:55 10° SE
Cosmos 2056 Rocket 3.4 04:42:34 10° SSW 04:47:38 64° WNW 04:52:43 10° NNE
STARLINK-41 4.5 04:47:48 30° WSW 04:48:43 33° SW 04:52:25 10° SSE
Cosmos 1862 Rocket 4.2 04:48:11 31° WNW 04:48:58 33° W 04:52:58 10° SSW
FALCON 9 DEB 4.4 04:48:56 17° NNE 04:49:01 17° NNE 04:50:45 10° ENE
STARLINK-76 4.5 04:49:35 28° WSW 04:50:28 31° SW 04:54:02 10° SSE
PSLV R/B 4.4 04:49:40 20° SSW 04:50:31 24° SSE 04:52:36 10° ESE
Cosmos 2034 Rocket 4.2 04:45:01 10° SSW 04:51:03 48° WNW 04:57:11 10° N
Cosmos 1703 Rocket 3.5 04:46:52 10° N 04:51:21 89° W 04:55:46 10° S
Cosmos 1634 Rocket 4.1 04:45:57 10° S 04:52:10 79° E 04:58:22 10° N
Cosmos 1190 Rocket 4.1 04:49:56 18° NNW 04:53:41 55° WSW 04:58:46 10° S
Cosmos 676 Rocket 4.0 04:49:21 10° NNW 04:54:36 89° W 04:59:53 10° SSE
USA 116 3.9 04:50:44 10° S 04:54:48 65° W 04:59:28 10° NNW
FALCON 9 DEB 4.2 04:54:35 18° N 04:54:56 19° NNE 04:56:46 10° ENE
Cosmos 2084 Rocket 3.6 04:54:39 19° NNW 04:57:46 78° NE 05:02:10 10° SE
FENGYUN 3A 3.6 04:52:40 10° N 04:58:02 69° WNW 05:03:22 10° SSW
Helios 1A Rocket 2.7 04:56:33 10° N 05:00:36 77° WNW 05:04:37 10° SSW
Cosmos 1627 Rocket 4.5 04:54:42 10° N 05:00:57 89° W 05:07:16 10° S
Cosmos 724 4.3 04:55:54 10° SW 05:01:54 60° NW 05:07:48 10° NNE
Cosmos 1943 3.5 04:58:55 10° NNW 05:04:33 68° ENE 05:10:08 10° SSE
Lacrosse 5 3.3 05:04:55 18° W 05:06:36 21° WSW 05:10:21 10° S
Cosmos 1954 Rocket 4.0 05:01:44 10° NNW 05:07:00 75° WSW 05:12:16 10° SSE
Cosmos 1869 Rocket 3.5 05:03:35 10° S 05:07:55 90° ENE 05:12:16 10° N
H-2A R/B 3.9 05:06:57 10° NNE 05:10:33 46° E 05:14:10 10° S
Cosmos 1420 Rocket 3.9 05:05:30 10° SSW 05:10:43 85° WNW 05:15:57 10° NNE
CZ-4C R/B 3.3 05:06:17 14° NW 05:12:32 53° WSW 05:20:30 10° SSE
Okean 1 3.2 05:09:10 10° N 05:13:09 89° W 05:17:06 10° S
STARLINK 1044 4.3 05:13:23 16° NNW 05:15:05 26° NNE 05:17:36 10° E
SL-16 R/B 3.4 05:12:45 17° WNW 05:15:10 22° W 05:19:24 10° SSW
Starlink Launch 2 leader 3.8 05:14:06 17° NNW 05:15:24 27° NNE 05:17:34 10° E
STARLINK 1058 4.5 05:13:36 15° NNW 05:15:49 29° NNE 05:18:50 10° E
STARLINK 1043 4.4 05:16:19 14° NW 05:18:40 30° NNE 05:21:42 10° E
Starlink Launch 2 trailer 3.7 05:17:39 16° NNW 05:19:05 29° NNE 05:21:18 10° E
STARLINK 1065 4.4 05:18:34 14° NW 05:21:01 31° NNE 05:24:05 10° E
Cosmos 1092 Rocket 4.2 05:15:08 10° NNW 05:21:01 47° W 05:26:51 10° SSW
Cosmos 1603 3.7 05:15:55 10° NNW 05:21:39 68° WSW 05:27:18 10° SSE
STARLINK 1063 4.3 05:21:14 13° NW 05:23:48 32° NNE 05:26:53 10° E
SMAP 3.4 05:20:03 10° NNE 05:24:43 69° ESE 05:29:20 10° S
STARLINK 1064 4.3 05:23:38 13° NW 05:26:18 33° NNE 05:29:25 10° E
STARLINK 1041 4.2 05:26:21 12° NW 05:29:10 35° NNE 05:32:18 10° E
ALOS 3.1 05:27:01 10° N 05:31:00 28° WNW 05:34:59 10° SW
STARLINK 1038 4.2 05:28:55 11° NW 05:31:51 36° NNE 05:35:00 10° E
NOAA 6 4.4 05:28:09 10° N 05:32:59 42° WNW 05:37:46 10° SW
STARLINK 1046 4.1 05:31:27 11° NW 05:34:30 37° NNE 05:37:41 10° E
Cosmos 1452 Rocket 3.5 05:29:16 10° SSW 05:34:30 68° WNW 05:39:48 10° NNE
Envisat 4.3 05:30:26 10° NNE 05:35:20 45° E 05:40:11 10° S
Okean 3 3.7 05:31:11 10° N 05:35:22 73° E 05:39:33 10° SSE
Meteor 1-18 Rocket 4.3 05:30:19 10° NNW 05:35:44 56° W 05:41:09 10° S
STARLINK 1039 4.0 05:34:00 10° NW 05:37:10 39° NNE 05:40:22 10° E
STARLINK 1045 4.0 05:34:32 10° NW 05:37:44 39° NNE 05:40:57 10° E
ATLAS 5 CENTAUR R/B 3.6 05:37:37 10° NW 05:39:50 13° NNW 05:42:10 10° N
Cosmos 1850 Rocket 4.1 05:37:17 10° NNW 05:42:40 87° WSW 05:48:01 10° SSE
OE (NEXTSAT) 4.4 05:39:22 10° WNW 05:42:50 74° NNE 05:46:22 10° E
Cosmos 1602 4.4 05:45:15 10° SW 05:48:44 33° WNW 05:52:13 10° N
CORIOLIS 4.2 05:46:33 10° NNE 05:52:00 88° WNW 05:57:24 10° SSW
Cosmos 2180 Rocket 4.5 05:49:03 10° SSW 05:55:09 71° W 06:01:18 10° N
Meteor 1-11 Rocket 4.3 05:50:48 10° S 05:56:24 66° E 06:02:11 10° NNE
